| time (UTC) | temp F | wind direction | speed knots | gust knots | rain 1hr in | rain 24hr in | rain mn in | humidity % | barometer mb |
| 20260507171553 | 68 | 203 | 3.5 | 6.1 | 0.00 | 0.14 | 0.14 | 66 | 1009.7 |
| 20260507170609 | 68 | 248 | 3.5 | 6.1 | 0.00 | 0.14 | 0.14 | 66 | 1009.6 |
| 20260507165552 | 68 | 293 | 4.3 | 7.0 | 0.00 | 0.14 | 0.14 | 65 | 1009.4 |
| 20260507164610 | 68 | 248 | 4.3 | 7.0 | 0.00 | 0.14 | 0.14 | 66 | 1009.3 |
| 20260507163555 | 69 | 158 | 2.6 | 5.2 | 0.00 | 0.14 | 0.14 | 68 | 1009.3 |
| 20260507162609 | 68 | 225 | 3.5 | 6.1 | 0.00 | 0.14 | 0.14 | 69 | 1009.2 |
| 20260507161555 | 68 | 225 | 2.6 | 4.3 | 0.00 | 0.14 | 0.14 | 70 | 1009.2 |
| 20260507155554 | 65 | 203 | 4.3 | 7.0 | 0.08 | 0.14 | 0.14 | 79 | 1009.3 |
| 20260507153554 | 63 | 135 | 4.3 | 7.8 | 0.12 | 0.14 | 0.14 | 86 | 1009.4 |
| 20260507152609 | 61 | 135 | 5.2 | 9.6 | 0.13 | 0.14 | 0.14 | 88 | 1009.5 |
| 20260507150609 | 61 | 135 | 4.3 | 7.0 | 0.06 | 0.06 | 0.06 | 87 | 1010.1 |
| 20260507145552 | 63 | 0 | 7.0 | 12.2 | 0.04 | 0.04 | 0.04 | 83 | 1010.1 |
| 20260507143553 | 68 | 270 | 0.0 | 1.7 | 0.01 | 0.01 | 0.01 | 73 | 1010.0 |
| 20260507142610 | 67 | 293 | 1.7 | 3.5 | 0.00 | 0.00 | 0.00 | 70 | 1010.1 |
| 20260507140610 | 66 | 293 | 1.7 | 3.5 | 0.00 | 0.00 | 0.00 | 71 | 1010.0 |
| 20260507134610 | 67 | 293 | 1.7 | 3.5 | 0.00 | 0.00 | 0.00 | 71 | 1009.7 |
| 20260507133552 | 67 | 0 | 1.7 | 4.3 | 0.00 | 0.00 | 0.00 | 70 | 1009.8 |
| 20260507132610 | 68 | 135 | 2.6 | 5.2 | 0.00 | 0.00 | 0.00 | 70 | 1009.8 |
| 20260507131553 | 67 | 158 | 6.1 | 7.8 | 0.00 | 0.00 | 0.00 | 70 | 1009.7 |
| 20260507130611 | 67 | 68 | 2.6 | 5.2 | 0.00 | 0.00 | 0.00 | 68 | 1009.7 |
| 20260507123555 | 68 | 293 | 4.3 | 6.1 | 0.00 | 0.00 | 0.00 | 71 | 1009.8 |
| 20260507122611 | 68 | 135 | 4.3 | 7.8 | 0.00 | 0.00 | 0.00 | 71 | 1009.8 |
| 20260507120609 | 69 | 293 | 5.2 | 9.6 | 0.00 | 0.00 | 0.00 | 71 | 1010.1 |
| 20260507115553 | 70 | 203 | 4.3 | 7.8 | 0.00 | 0.00 | 0.00 | 69 | 1010.2 |
| 20260507114610 | 72 | 248 | 2.6 | 5.2 | 0.00 | 0.00 | 0.00 | 68 | 1010.1 |
| 20260507113553 | 70 | 315 | 6.1 | 7.8 | 0.00 | 0.00 | 0.00 | 72 | 1010.1 |
| 20260507111553 | 70 | 315 | 6.1 | 9.6 | 0.00 | 0.00 | 0.00 | 71 | 1010.2 |
| 20260507105555 | 70 | 315 | 5.2 | 7.8 | 0.00 | 0.00 | 0.00 | 71 | 1010.3 |
| 20260507103553 | 69 | 338 | 6.1 | 7.8 | 0.00 | 0.00 | 0.00 | 70 | 1010.4 |
| 20260507102610 | 70 | 315 | 3.5 | 6.1 | 0.00 | 0.00 | 0.00 | 69 | 1010.4 |
| 20260507100610 | 70 | 248 | 3.5 | 7.0 | 0.00 | 0.00 | 0.00 | 70 | 1010.5 |
| 20260507095555 | 70 | 315 | 4.3 | 5.2 | 0.00 | 0.00 | 0.00 | 70 | 1010.5 |
| 20260507094610 | 70 | 180 | 3.5 | 4.3 | 0.00 | 0.00 | 0.00 | 69 | 1010.6 |
| 20260507093554 | 70 | 135 | 2.6 | 5.2 | 0.00 | 0.00 | 0.00 | 68 | 1010.6 |
| 20260507092609 | 69 | 315 | 1.7 | 3.5 | 0.00 | 0.00 | 0.00 | 70 | 1010.6 |
| 20260507091553 | 70 | 180 | 2.6 | 5.2 | 0.00 | 0.00 | 0.00 | 66 | 1010.6 |
| 20260507085553 | 70 | 225 | 4.3 | 7.8 | 0.00 | 0.00 | 0.00 | 66 | 1010.6 |
| 20260507084612 | 69 | 135 | 1.7 | 4.3 | 0.00 | 0.00 | 0.00 | 68 | 1010.5 |
| 20260507083553 | 70 | 68 | 1.7 | 3.5 | 0.00 | 0.00 | 0.00 | 67 | 1010.5 |
| 20260507082610 | 69 | 293 | 2.6 | 5.2 | 0.00 | 0.00 | 0.00 | 66 | 1010.4 |
| 20260507080610 | 67 | 248 | 2.6 | 4.3 | 0.00 | 0.00 | 0.00 | 70 | 1010.5 |
| 20260507075553 | 67 | 158 | 4.3 | 5.2 | 0.00 | 0.00 | 0.00 | 72 | 1010.5 |
| 20260507073552 | 65 | 248 | 4.3 | 7.0 | 0.00 | 0.00 | 0.00 | 75 | 1010.6 |
| 20260507071553 | 64 | 203 | 1.7 | 4.3 | 0.00 | 0.00 | 0.00 | 78 | 1010.6 |
| 20260507065553 | 63 | 180 | 3.5 | 6.1 | 0.00 | 0.00 | 0.00 | 79 | 1010.4 |
| 20260507064609 | 63 | 270 | 3.5 | 5.2 | 0.00 | 0.00 | 0.00 | 79 | 1010.4 |
| 20260507063553 | 63 | 248 | 2.6 | 4.3 | 0.00 | 0.00 | 0.00 | 80 | 1010.4 |
| 20260507062611 | 62 | 225 | 3.5 | 6.1 | 0.00 | 0.00 | 0.00 | 80 | 1010.5 |
| 20260507061556 | 62 | 203 | 2.6 | 5.2 | 0.00 | 0.00 | 0.00 | 80 | 1010.3 |
| 20260507060610 | 62 | 180 | 4.3 | 6.1 | 0.00 | 0.00 | 0.00 | 81 | 1010.0 |
| 20260507055554 | 62 | 180 | 4.3 | 6.1 | 0.00 | 0.00 | 0.00 | 81 | 1009.9 |
| 20260507054610 | 62 | 203 | 4.3 | 6.1 | 0.00 | 0.00 | 0.00 | 81 | 1009.9 |
| 20260507053556 | 62 | 135 | 4.3 | 7.0 | 0.00 | 0.00 | 0.00 | 81 | 1009.9 |
| 20260507052610 | 62 | 135 | 3.5 | 5.2 | 0.00 | 0.00 | 0.00 | 81 | 1009.7 |
| 20260507051554 | 62 | 135 | 3.5 | 5.2 | 0.00 | 0.00 | 0.00 | 81 | 1009.8 |
| 20260507045554 | 61 | 113 | 3.5 | 6.1 | 0.00 | 0.00 | 0.00 | 82 | 1009.6 |
| 20260507044609 | 60 | 158 | 1.7 | 3.5 | 0.00 | 0.00 | 0.00 | 82 | 1009.5 |
| 20260507043554 | 60 | 135 | 3.5 | 4.3 | 0.00 | 0.00 | 0.00 | 82 | 1009.3 |
| 20260507042610 | 60 | 158 | 2.6 | 4.3 | 0.00 | 0.00 | 0.00 | 81 | 1009.3 |
| 20260507041553 | 60 | 158 | 3.5 | 6.1 | 0.00 | 0.00 | 0.00 | 81 | 1009.2 |
| 20260507040610 | 61 | 293 | 4.3 | 6.1 | 0.00 | 0.00 | 0.00 | 80 | 1009.3 |
| 20260507035555 | 61 | 203 | 3.5 | 4.3 | 0.00 | 0.00 | 0.00 | 80 | 1009.5 |
| 20260507034610 | 61 | 158 | 4.3 | 5.2 | 0.00 | 0.00 | 0.00 | 80 | 1009.3 |
| 20260507033553 | 61 | 203 | 3.5 | 5.2 | 0.00 | 0.00 | 0.00 | 79 | 1009.3 |
| 20260507032610 | 62 | 135 | 2.6 | 4.3 | 0.00 | 0.00 | 0.00 | 78 | 1009.4 |
| 20260507031554 | 62 | 158 | 3.5 | 4.3 | 0.00 | 0.00 | 0.00 | 78 | 1009.4 |
| 20260507030610 | 62 | 203 | 2.6 | 5.2 | 0.00 | 0.00 | 0.00 | 78 | 1009.4 |
| 20260507024613 | 62 | 158 | 2.6 | 3.5 | 0.00 | 0.00 | 0.00 | 77 | 1009.4 |
| 20260507023552 | 62 | 180 | 3.5 | 5.2 | 0.00 | 0.00 | 0.00 | 76 | 1009.0 |
| 20260507022610 | 63 | 248 | 3.5 | 5.2 | 0.00 | 0.00 | 0.00 | 75 | 1009.2 |
| 20260507021553 | 63 | 180 | 3.5 | 6.1 | 0.00 | 0.00 | 0.00 | 74 | 1009.2 |
| 20260507020610 | 63 | 158 | 3.5 | 4.3 | 0.00 | 0.00 | 0.00 | 73 | 1009.4 |
| 20260507015553 | 63 | 225 | 1.7 | 1.7 | 0.00 | 0.00 | 0.00 | 73 | 1009.5 |
| 20260507013553 | 63 | 248 | 1.7 | 3.5 | 0.00 | 0.00 | 0.00 | 73 | 1009.9 |
| 20260507012611 | 64 | 270 | 1.7 | 1.7 | 0.00 | 0.00 | 0.00 | 73 | 1009.8 |
| 20260507010610 | 64 | 203 | 2.6 | 4.3 | 0.00 | 0.00 | 0.00 | 74 | 1010.1 |
| 20260507004610 | 64 | 225 | 2.6 | 4.3 | 0.00 | 0.00 | 0.00 | 79 | 1010.1 |
| 20260507002610 | 64 | 225 | 1.7 | 3.5 | 0.00 | 0.00 | 0.00 | 79 | 1010.2 |
| 20260507000610 | 64 | 180 | 0.0 | 1.7 | 0.00 | 0.00 | 0.00 | 79 | 1010.1 |
| 20260506235554 | 64 | 180 | 0.9 | 1.7 | 0.00 | 0.00 | 0.00 | 79 | 1010.2 |
| 20260506234610 | 65 | 248 | 0.9 | 1.7 | 0.00 | 0.00 | 0.00 | 79 | 1010.1 |
| 20260506233554 | 65 | 180 | 1.7 | 1.7 | 0.00 | 0.00 | 0.00 | 79 | 1010.3 |
| 20260506232610 | 65 | 203 | 1.7 | 1.7 | 0.00 | 0.00 | 0.00 | 78 | 1010.3 |
| 20260506231554 | 65 | 203 | 1.7 | 4.3 | 0.00 | 0.00 | 0.00 | 78 | 1010.3 |
| 20260506230610 | 65 | 203 | 1.7 | 3.5 | 0.00 | 0.00 | 0.00 | 79 | 1010.3 |
| 20260506224612 | 65 | 203 | 1.7 | 3.5 | 0.00 | 0.00 | 0.00 | 79 | 1010.6 |
| 20260506223554 | 65 | 293 | 1.7 | 1.7 | 0.00 | 0.00 | 0.00 | 79 | 1010.7 |
| 20260506222610 | 65 | 248 | 1.7 | 3.5 | 0.00 | 0.00 | 0.00 | 79 | 1010.7 |
| 20260506221553 | 65 | 225 | 1.7 | 3.5 | 0.00 | 0.00 | 0.00 | 79 | 1010.7 |
| 20260506220612 | 65 | 248 | 1.7 | 4.3 | 0.00 | 0.00 | 0.00 | 78 | 1010.6 |
| 20260506213553 | 65 | 225 | 1.7 | 1.7 | 0.00 | 0.00 | 0.00 | 78 | 1010.9 |
| 20260506210610 | 65 | 270 | 1.7 | 5.2 | 0.00 | 0.00 | 0.00 | 78 | 1010.6 |
| 20260506205554 | 66 | 293 | 3.5 | 6.1 | 0.00 | 0.00 | 0.00 | 79 | 1010.5 |
| 20260506204611 | 66 | 68 | 1.7 | 4.3 | 0.00 | 0.00 | 0.00 | 78 | 1010.4 |
| 20260506203555 | 66 | 203 | 1.7 | 3.5 | 0.00 | 0.00 | 0.00 | 79 | 1010.3 |
| 20260506202611 | 66 | 68 | 2.6 | 5.2 | 0.00 | 0.00 | 0.00 | 79 | 1010.3 |
| 20260506200610 | 66 | 135 | 1.7 | 3.5 | 0.00 | 0.00 | 0.00 | 78 | 1010.5 |
| 20260506195554 | 66 | 248 | 0.9 | 3.5 | 0.00 | 0.00 | 0.00 | 78 | 1010.3 |
| 20260506194610 | 66 | 158 | 1.7 | 3.5 | 0.00 | 0.00 | 0.00 | 78 | 1010.1 |
| 20260506193554 | 66 | 23 | 1.7 | 3.5 | 0.00 | 0.00 | 0.00 | 78 | 1009.9 |
| 20260506192610 | 66 | 225 | 1.7 | 4.3 | 0.00 | 0.00 | 0.00 | 78 | 1009.8 |
| 20260506191553 | 66 | 90 | 1.7 | 3.5 | 0.00 | 0.00 | 0.00 | 79 | 1009.9 |
| 20260506190610 | 66 | 248 | 0.9 | 1.7 | 0.00 | 0.00 | 0.00 | 78 | 1009.8 |
| 20260506185555 | 66 | 315 | 1.7 | 4.3 | 0.00 | 0.00 | 0.00 | 78 | 1009.9 |
| 20260506184611 | 66 | 315 | 2.6 | 6.1 | 0.00 | 0.00 | 0.00 | 79 | 1009.6 |
| 20260506183555 | 66 | 270 | 1.7 | 3.5 | 0.00 | 0.00 | 0.00 | 78 | 1009.4 |
| 20260506181556 | 67 | 315 | 1.7 | 3.5 | 0.00 | 0.00 | 0.00 | 80 | 1009.4 |
| 20260506175554 | 66 | 293 | 3.5 | 4.3 | 0.00 | 0.00 | 0.00 | 80 | 1009.3 |
| 20260506174612 | 67 | 270 | 3.5 | 5.2 | 0.00 | 0.00 | 0.00 | 79 | 1009.3 |
| 20260506173554 | 67 | 293 | 3.5 | 5.2 | 0.00 | 0.00 | 0.00 | 78 | 1009.3 |
| 20260506172611 | 68 | 293 | 3.5 | 5.2 | 0.00 | 0.00 | 0.00 | 78 | 1009.1 |